www.pogodaiklimat.ru

Погода и климат >> Архив погоды >> Россия >> Ямало-Ненецкий АО >> Тамбей


ПОГОДА в Тамбее

  • Прогноз погоды в Тамбее
  • Монитор погоды в Тамбее
  • Климат города

АРХИВ ПОГОДЫ в Тамбее

Время (UTC), дата Ветер
(напр.,м/с)
 
Видим.   Явления Облачность Т
(С)
Тd
(С)
f
(%)
Тe
(С)
Тes
(С)
Комфортность P
(гПа)
Po
(гПа)
Тmin
(С)
Tmax
(С)
R
(мм)
R24
(мм)
S
(см)
12 17.04 З 8 н/о н/о -14.3 -16.1 -25 -25 1008.6 1007.6
15 17.04 З 6 н/о н/о -15.0 -16.5 -25 -25 1006.7 1005.6
18 17.04 ЮЗ 6 н/о н/о -14.5 -15.6 -24 -24 1003.8 1002.7
21 17.04 Ю 6 н/о н/о -13.5 -14.3 -23 -23 1000.0 999.0
00 18.04 ЮВ 4 н/о н/о -17.5 -18.7 -26 -26 997.2 996.2
03 18.04 ЮВ 3 н/о н/о -14.5 -15.4 -21 -21 995.0 993.9
06 18.04 ЮВ 6 н/о н/о -11.2 -11.7 -20 -20 991.9 990.9
09 18.04 ЮВ 5 н/о н/о -7.1 -7.2 -15 -15 989.3 988.3
12 18.04 ЮВ 6 н/о н/о -6.2 -6.3 -14 -14 987.2 986.2
15 18.04 В 6 н/о н/о -7.0 -7.0 -15 -15 985.0 984.0
18 18.04 В 8 н/о н/о -7.4 -7.5 -17 -17 983.7 982.7
21 18.04 Ю 6 н/о н/о -10.5 -11.0 -19 -19 984.2 983.2
00 19.04 В 3 н/о н/о -13.1 -13.7 -19 -19 986.6 985.5
03 19.04 В 5 н/о н/о -9.1 -9.5 -17 -17 988.0 987.0
06 19.04 В 7 н/о н/о -8.4 -9.2 -17 -17 989.5 988.5
09 19.04 В 10 н/о н/о -7.9 -8.6 -18 -18 991.3 990.3
12 19.04 В 9
{13}
н/о н/о -7.8 -8.6 -18 -18 993.2 992.2
15 19.04 В 8
{13}
н/о н/о -9.8 -10.3 -20 -20 995.2 994.1
18 19.04 СВ 5 н/о н/о -14.7 -15.7 92 -23 998.4 997.3
21 19.04 СВ 6 н/о н/о -12.3 -12.9 -21 -21 997.4 996.4
00 20.04 В 5 н/о н/о -13.0 -13.6 -21 -21 998.4 997.4
03 20.04 В 2 н/о н/о -11.8 -12.6 -16 -16 999.4 998.3
06 20.04 СВ 3 н/о н/о -12.9 -14.1 -19 -19 1000.7 999.6
09 20.04 СВ 4 н/о н/о -11.0 -12.0 -18 -18 1001.2 1000.2
12 20.04 СВ 7 н/о н/о -11.9 -12.8 -21 -21 1001.4 1000.4
15 20.04 СВ 6 н/о н/о -13.5 -14.3 -23 -23 1000.8 999.8
18 20.04 СВ 7 н/о н/о -14.3 -15.2 -24 -24 999.7 998.7
21 20.04 СВ 7 н/о н/о -15.3 -16.3 -26 -26 998.6 997.5
00 21.04 СВ 7 н/о н/о -16.2 -17.2 -27 -27 998.3 997.2
03 21.04 СВ 5 н/о н/о -15.4 -16.7 -24 -24 998.3 997.2
06 21.04 С 6 н/о н/о -13.1 -14.3 -22 -22 997.9 996.8
09 21.04 С 8 н/о н/о -11.9 -13.1 -22 -22 997.9 996.9
12 21.04 С 7 н/о н/о -13.0 -14.2 -23 -23 998.3 997.3
15 21.04 С 5 н/о н/о -15.0 -16.1 -24 -24 998.5 997.4
18 21.04 С 7 н/о н/о -17.9 -19.1 -29 -29 998.5 997.4
21 21.04 СЗ 6 н/о н/о -18.8 -20.2 -29 -29 998.3 997.3
00 22.04 СЗ 7 н/о н/о -20.3 -21.8 -32 -32 опасность
обморожения
998.3 997.2
03 22.04 СЗ 7 н/о н/о -18.0 -19.2 -29 -29 998.8 997.7
06 22.04 С 7 н/о н/о -15.6 -17.0 -26 -26 998.8 997.7
09 22.04 С 7 н/о н/о -13.6 -14.9 -23 -23 999.7 998.7
12 22.04 СЗ 9 н/о н/о -13.0 -14.2 -24 -24 1001.1 1000.1
15 22.04 СЗ 8
{13}
н/о н/о -14.8 -15.8 -26 -26 1002.2 1001.2
18 22.04 СЗ 8 н/о н/о -14.6 -15.5 -25 -25 1003.7 1002.6
21 22.04 СЗ 5 н/о н/о -18.2 -19.4 -28 -28 1005.3 1004.3
00 23.04 З 6 н/о н/о -19.5 -20.9 -30 -30 1007.0 1005.9
03 23.04 З 4 н/о н/о -18.3 -19.7 -27 -27 1008.3 1007.2
06 23.04 ЮЗ 6 н/о н/о -13.9 -14.9 -23 -23 1009.5 1008.5
09 23.04 ЮЗ 9 н/о н/о -12.6 -13.8 -23 -23 1010.2 1009.1
12 23.04 ЮЗ 8 н/о н/о -13.6 -14.8 -24 -24 1010.2 1009.1
15 23.04 Ю 7 н/о н/о -14.7 -15.8 -25 -25 1009.7 1008.6
18 23.04 Ю 8 н/о н/о -17.2 -18.6 -29 -29 1008.8 1007.7
21 23.04 Ю 6 н/о н/о -16.3 -17.7 -26 -26 1008.0 1007.0
00 24.04 Ю 7 н/о н/о -15.4 -16.8 89 -26 1007.8 1006.7
03 24.04 Ю 6 н/о н/о -13.2 -14.6 -22 -22 1005.5 1004.5
06 24.04 Ю 7 н/о н/о -10.7 -11.7 92 -20 1006.3 1005.3
09 24.04 Ю 6 н/о н/о -9.1 -9.9 94 -18 1006.3 1005.3

 

Местоположение метеостанции Тамбей (Ямало-Ненецкий АО, Россия): широта 71.48 долгота 71.82 высота над уровнем моря 8 м.

В архиве по умолчанию представлена погода в Тамбее за последнюю неделю. Архивные данные за месяц целиком и за предыдущие месяцы, начиная с января 2011 года, Вы можете получить, выбрав интересующий диапазон дат из раскрывающегося списка и нажав кнопку "Ввод!".


*Определитесь, кто Вы:
робот инопланетянин человек

Внимание! Время в таблицах - всемирное. Для получения местного времени необходимо прибавить поправку, которая в Тамбее равна 5 ч.

Смотрите также архив погоды в соседних городах и на ближайших метеорологических станциях:

Погода в Сеяхе (Ямало-Ненецкий АО, Россия) (148 км)
Погода в Имени Попова (Ямало-Ненецкий АО, Россия) (214 км)
Погода в Гыде (Ямало-Ненецкий АО, Россия) (248 км)
Погода в Марресаля (Ямало-Ненецкий АО, Россия) (270 км)
Погода в Антипаюте (Ямало-Ненецкий АО, Россия) (327 км)
Погода в Усть-Каре (Ненецкий АО, Россия) (357 км)
Погода на Острове Диксон (Красноярский край, Россия) (365 км)
Погода в Inari Angeli (Финляндия) (367 км)
Погода в Сопочной Карге (Красноярский край, Россия) (382 км)
Погода в Амдерме (Ненецкий АО, Россия) (419 км)

Пояснения к столбцам:

Ветер - указаны скорость ветра в м/с - средняя за 10 мин, порывы в срок и между сроками (в фигурных скобках) и направление, откуда дует ветер: С - северный, СВ - северо-восточный, В - восточный, ЮВ - юго-восточный, Ю - южный, ЮЗ - юго-западный, З - западный, СЗ - северо-западный.
Видимость - горизонтальная дальность видимости в метрах или километрах. При видимости от 1 до 10 км при отсутствии осадков обычно наблюдается дымка, при ухудшении видимости до 1 км и менее - туман. В сухую погоду видимость может ухудшаться дымом, пылью или мглою.
Явления - указаны атмосферные явления, наблюдавшиеся в срок или в последний час перед сроком; фигурными скобками обозначены явления, наблюдавшиеся между сроками (за 1-3 часа до срока); квадратными скобками обозначены град или гололедные отложения с указанием их диаметра в мм.
Облачность - указаны через наклонную черту общая и нижняя облачность в баллах и высота нижней границы облаков в метрах; квадратными скобками обозначены формы облаков: Ci - перистые, Cs - перисто-слоистые, Cc - перисто-кучевые, Ac - высококучевые, As - высокослоистые, Sc - слоисто-кучевые, Ns - слоисто-дождевые, Cu - кучевые, Cb - кучево-дождевые. Подробнее классификацию облаков см. в Атласе облаков (PDF).
T - Температура воздуха - температура, измеренная на высоте 2 м над землей.
Td - Температура точки росы - температура, при понижении до которой содержащийся в воздухе водяной пар достигнет насыщения.
f - Относительная влажность воздуха - влажноcть воздуха, измеренная на высоте 2 м над землей.
Te - Эффективная температура - температура, которую ощущает одетый по сезону человек в тени. Характеристика душности погоды. При расчете учитывается влияние влажности воздуха и скорости ветра на теплоощущения человека.
Tes - Эффективная температура на солнце - температура, которую ощущает человек, с поправкой на солнечный нагрев. Характеристика знойности погоды. Зависит от высоты солнца над горизонтом, облачности и скорости ветра. Ночью, в пасмурную погоду, а также при ветре 12 м/с и более поправка равна нулю.
P - Атмосферное давление - приведенное к уровню моря атмосферное давление.
Po - Атмосферное давление - измеренное на уровне метеостанции атмосферное давление.
Tmin - Минимальная температура - минимум температуры воздуха на высоте 2 м над землей.
Tmax - Максимальная температура - максимум температуры воздуха на высоте 2 м над землей.
R - Количество осадков - Количество выпавших осадков за период времени, мм. При наведении курсора мыши на число - период времени, за который выпало указанное количество осадков.
R24 - Количество осадков - Количество выпавших осадков за 24 часа, мм.
S - Снежный покров - Высота снежного покрова, см. При наведении курсора мыши на число - состояние снежного покрова и степень покрытия местности в баллах.